User: anonymous   Login
Location: Peebles
(55.6412°N, 3.1714°W)
Time: 02:22:35
(UTC+00:00)
Language:

CZ-4 R/B - Orbit

View from above orbital plane
View from above orbital plane
View from above satellite
View from above satellite

Ground track
Ground track

The orbit data is extracted from the following two-line orbital elements,

1 29507U 06046C   21333.33891474  .00000386  00000-0  34296-4 0  9995
2 29507  97.7606 359.0620 0045958 178.6919 181.4433 15.01240221824845
Epoch (UTC): 29 November 2021 08:08:02
Eccentricity: 0.0045958
inclination: 97.7606°
perigee height: 531 km
apogee height: 595 km
right ascension of ascending node: 359.0620°
argument of perigee: 178.6919°
revolutions per day: 15.01240221
mean anomaly at epoch: 181.4433°
orbit number at epoch: 82484

The dashed part of the orbit path shows where the satellite is in the earth's shadow,  

DLR